Погода в Витебске

Погода в Витебске : погода сейчас, прогноз погоды и архив. Всё, что Вы хотите узнать о погоде в Витебске!

Поиск расширенной информации на нашем сайте:

Другие новости

Новости СМИ2

Главная страница сайта

Новости сайта

03.07.2017

Напоминаем, что на нашем специализированном сайте Метеоцентр.Азия вы можете получить высокодетализированные автоматические прогнозы погоды по пунктам России, СНГ и мира в авиационном формате (включающие направление и скорость ветра, видимость, явления погоды, количество и форму облачности, нижнюю и верхнюю границу облачности).

Рекомендуем: Изготовление информационных табличек изготовление табличек ростов.

Погода в Витебске - сегодня

Время (UTC), дата Ветер
(°,м/с) 
Видим.   Явления Облачность Т
(°С)
Тd
(°С)
f(%) Тe
(°С)
Pmin
(гПа)
dP
(гПа)
Po
(мм)
O2
(г/м3)
Тmin Tmax R s Состояние
почвы
15 13.01.18 тихо ()   10 км    10/10 240 м 
[St]
-8 -10.2 84 -8  1045.4  -0.5  767  319      0.0     
18 13.01.18 010 (С) 10 км    10/10 240 м 
[St]
-8.1 -9.9 87 -8  1044.9  -0.5  766  319    -7  0.0  <0.5   
21 13.01.18 тихо ()   10 км    10/10 180 м 
[St]
-8.5 -10 89 -9  1044.3  -0.6  766  320           
00 14.01.18 тихо ()   8000 м  дымка  10/10 180 м 
[St]
-8.3 -9.7 90 -8  1043.7  -0.6  765  319           
03 14.01.18 тихо ()   7000 м  дымка  10/10 180 м 
[St]
-9.1 -10.2 92 -9  1042.9  -0.9  765  320        <0.5   
06 14.01.18 тихо ()   10 км  {снег}  10/10 120 м 
[St]
-9.5 -10.7 91 -10  1042.7  -0.2  765  320  -10    0.0  <0.5  равномерный
сухой снег
100% 
09 14.01.18 тихо ()   8000 м  слаб. снег  10/10 120 м 
[Frnb]
-9.9 -11.6 87 -10  1043.2  0.4  765  321           
12 14.01.18 тихо ()   10 км  в посл. час снег  10/10 240 м 
[St]
-9 -10.6 88 -9  1042.3  -0.8  764  320           
15 14.01.18 тихо ()   9000 м  слаб. снег  10/10 240 м 
[Frnb]
-9.3 -11.4 85 -9  1041.9  -0.4  764  320      0.0     
18 14.01.18 130 (ЮВ) 9000 м  слаб. снег  10/10 210 м 
[St]
-10.1 -12.1 85 -10  1041.7  -0.3  764  321    -8.8  0.0  <0.5   
21 14.01.18 160 (Ю) 10 км  {снег}  10/10 210 м 
[St]
-9.9 -11.6 87 -10  1041.5  -0.2  764  320           
00 15.01.18 150 (ЮВ) 10 км  в посл. час снег  10/10 210 м 
[St]
-9.8 -11.5 87 -10  1040.9  -0.6  763  320           
03 15.01.18 230 (ЮЗ) 9000 м  слаб. снег  10/10 210 м 
[St]
-10.3 -11.6 90 -10  1039.4  -1.4  762  320      0.0  <0.5   
06 15.01.18 180 (Ю) 4200 м  слаб. снег  10/10 100 м верхняя 
[Frnb|Cs]
-10.2 -12.2 85 -10    -1  761  320      0.2     
09 15.01.18 180 (Ю) 9000 м  слаб. снег  10/8 270 м средняя 
[Frnb|As op]
-10.1 -12.9 80 -10  1037.7  -0.7  761  320           
12 15.01.18 170 (Ю) 9000 м  слаб. снег  10/6 400 м средняя 
[Frnb|As op]
-9.1 -12.5 76 -11  1035.8  -1.8  759  318           
15 15.01.18 140 (ЮВ) 9000 м  слаб. снег  10/6 400 м средняя 
[Frnb|As op]
-9.2 -12.2 79 -11  1033.9  -1.8  758  317      0.2     
18 15.01.18 170 (Ю) 9000 м  слаб. снег  9/6 400 м средняя 
[Frnb|As op]
-10.4 -14 75 -13  1032.9  -1.1  757  318    -8.8  0.2   
21 15.01.18 180 (Ю) 9000 м  слаб. снег  9/9 300 м 
[St]
-11.1 -13.9 80 -14  1031.9  -1  757  319           
00 16.01.18 170 (Ю) 9000 м  слаб. снег  9/9 330 м 
[St]
-11.3 -14.1 80 -14  1030.4  -1.4  755  319           
03 16.01.18 180 (Ю) 6000 м  слаб. снег  10/10 300 м 
[St]
-11.6 -14.4 80 -15  1028.4  -2  754  319      0.0   
06 16.01.18 090 (В) 10 км  в посл. час снег  8/8 360 м 
[St]
-13.3 -16 80 -15  1026.7  -1.9  753  320  -13.3    0.0  равномерный
сухой снег
100% 
09 16.01.18 130 (ЮВ) 10 км  ледяные иглы{снег}  ясно 
-11.5 -15 75 -13  1024  -2.4  751  317           
12 16.01.18 120 (ЮВ) 10 км  {снег}  4/0 средняя 
[Ac trans]
-10.1 -15.4 65 -13  1020.5  -3.4  748  314           
15 16.01.18 160 (Ю) 10 км    6/0 средняя 
[Ac As]
-10.1 -13.7 75 -12  1017.6  -2.8  746  313      0.0     
Время (UTC), дата Ветер
(°,м/с) 
Видим.   Явления Облачность Т
(°С)
Тd
(°С)
f(%) Тe
(°С)
Pmin
(гПа)
dP
(гПа)
Po
(мм)
O2
(г/м3)
Тmin Tmax R s Состояние
почвы

Для получения пояснительной информации подведите курсор к названию столбца.

ПОГОДА в Витебске - архив

Всё, что Вы хотите узнать о погоде в Витебске - удобно и подробно!

Выберите нужную дату (начиная с 1 января 2015* года) и нажмите кнопку "Найти".
Будут отображены архивные сводки погоды по пункту Витебск, начиная с указанной даты.


Отображать данные в формате CSV (для использования в таблицах Excel)


Внимание! Наш архив погоды предназначен исключительно для личного некоммерческого использования в познавательных целях. Если Вам необходимы официальные справки о состоянии погоды (для производственных, юридических, коммерческих и т.п. целей), обращайтесь в органы Росгидромета.

*Примечание: данная дата относится к архиву по метеостанциям СССР (Россия, СНГ, Балтия).
Архив по метеостанциям Зарубежной Европы и Азии (кроме Китая) хранится 10 дней, по другим регионам земного шара (Китай, Африка, Америка, Австралия, Океания) - 1 день.

Витебск - район местоположения метеостанции


Название, широта, долгота, высота метеостанции:
Витебск (город) 55.1°ш. 30.3°д. 170 м над ур. моря [Беларусь]

Дополнительная информация

В oтличие oт бoльшинства пoгoдных сайтoв мы публикуем пoдрoбную метеoинфoрмацию в детальнoм прoфессиoнальнoм фoрмате.

Характеристики температуры и влажнoсти вoздуха измеряются на высoте 2 м в тени вдали oт зданий и деревьев.
Скoрoсть ветра измеряется на высoте 10 м (на урoвне рoста челoвека скoрoсть ветра ниже в 1.5-2 раза). Если метеoстанция нахoдится в гoрoде или в лесу, тo скoрoсть ветра занижена на 2-4 м/с пo сравнению с oткрытым местoм. Скoрoсть ветра над акватoриями крупных рек и oзёр, а также на вершинах хoлмoв на 2-5 м/с выше, чем в oбычных услoвиях.
Атмoсфернoе давление в разных тoчках местнoсти мoжет значительнo oтличаться oт давления на метеoстанции, в зависимoсти oт услoвий рельефа (при пoдъёме на 10 м давление пoнижается примернo на 1 мм рт.ст.).